This demonstration page uses our WeatherBlox Daily Observations layout. Learn more.

Left ArrowRight Arrow

41.55636, -103.73856

Hourly Observations for February 4, 2020

Temp ( °F °C ) Dew Point ( °F °C ) Humidity (%) Winds ( mph kmh ) Pressure ( in mb ) Visibility ( mi km ) Precip ( " mm )
12:58 am 00:58 Cloudy with Light Snow 17 -8.2 14 -9.9 88 88 ENE 14 22 30.05 1018 2 4 N/A
1:58 am 01:58 Cloudy with Light Snow 17 -8.4 15 -9.7 90 90 ENE 12 19 30.09 1019 3 5 N/A
2:58 am 02:58 Cloudy with Light Snow 16 -8.8 14 -10.2 90 90 E 15 24 30.13 1020 7 11 N/A
3:58 am 03:58 Cloudy with Light Snow 16 -9.1 13 -10.4 90 90 ENE 12 19 30.16 1021 7 11 N/A
4:58 am 04:58 Cloudy with Light Snow 15 -9.3 13 -10.5 91 91 ENE 13 20 30.16 1021 5 8 N/A
5:58 am 05:58 Cloudy with Light Snow 15 -9.6 13 -10.7 92 92 E 9 15 30.18 1022 4 6 N/A
6:58 am 06:58 Cloudy with Light Snow 14 -10 12 -11 92 92 E 6 9 30.19 1022 3 5 N/A
7:58 am 07:58 Cloudy with Light Snow 14 -9.9 12 -10.9 92 92 E 6 9 30.18 1022 2 3 N/A
8:58 am 08:58 Cloudy with Light Snow 14 -10 12 -11 92 92 E 6 9 30.19 1022 2 3 N/A
9:58 am 09:58 Cloudy with Light Snow 13 -10.3 11 -11.5 91 91 ENE 10 17 30.21 1023 3 5 N/A
10:58 am 10:58 Cloudy with Light Snow 12 -10.9 10 -12.1 91 91 E 6 9 30.39 1029 3 5 N/A
11:58 am 11:58 Cloudy with Light Snow 12 -11.2 10 -12.3 92 92 E 3 6 30.26 1025 3 5 N/A
12:58 pm 12:58 Cloudy with Light Snow 12 -11.2 10 -12.4 91 91 N N/A 30.29 1026 2 3 N/A
1:58 pm 13:58 Cloudy with Light Snow 12 -11.1 10 -12.4 90 90 N N/A 30.32 1027 1 2 N/A
2:58 pm 14:58 Cloudy with Light Snow 13 -10.5 11 -11.5 92 92 N N/A 30.33 1027 2 4 N/A
3:58 pm 15:58 Mostly Cloudy with Light Snow 14 -10.2 10 -12.5 83 83 E 6 9 30.36 1028 10 16 0.01 0.25
4:58 pm 16:58 Mostly Cloudy with Light Snow 13 -10.3 9 -12.6 83 83 E 7 11 30.37 1029 4 6 0.01 0.25
5:58 pm 17:58 Mostly Cloudy with Light Snow 14 -9.9 9 -12.7 80 80 E 7 11 30.38 1029 10 16 0.01 0.25
6:58 pm 18:58 Cloudy with Light Snow Showers 15 -9.7 8 -13.2 76 76 E 5 7 30.36 1028 3 4 0.02 0.51
7:58 pm 19:58 Cloudy with Light Snow Showers 15 -9.2 10 -12.3 78 78 ENE 3 6 30.33 1027 1 2 0.01 0.25
8:58 pm 20:58 Cloudy 15 -9.3 10 -12.5 78 78 E 3 6 30.32 1027 7 11 0.01 0.25
9:58 pm 21:58 Mostly Cloudy 15 -9.4 10 -12.4 79 79 ESE 3 6 30.32 1027 7 11 N/A
10:58 pm 22:58 Cloudy with Light Snow Showers 15 -9.4 10 -12.1 81 81 N N/A 30.32 1027 10 16 N/A
11:58 pm 23:58 Cloudy 15 -9.7 8 -13.3 75 75 N N/A 30.33 1027 10 16 N/A

Powered by AerisWeather